FENGYUN 1C DEB, 32214

Orbit data source: Space-Track

FENGYUN 1C DEB, 32214 is space debris in SSO originally from a launch on Mon, 10 May 1999 UTC launched from the Taiyaun Space Center, China (TSC). Fengyun 1C debris stems from the Chinese weather satellite Fengyun-1C, which was intentionally destroyed by a Chinese anti-satellite missile in 2007. This event dramatically increased the amount of space debris, with thousands of trackable fragments posing hazards to satellites and human spaceflight. The Fengyun 1C debris cloud has become a focal point in discussions about space sustainability and the need for international regulations to prevent the creation of new debris.

Loading next visibility...
Identifier
32214, 1999-025CVL
Orbit
SSO
Country
Flag of CNCN / PRC
Related business
Manufacturer
Unknown
Mission
Spacecraft
Bus & Motor
Unknown
Mass
Unknown
Launch date (UTC)
1999-05-10 (27 years ago)
Launch vehicle
Unknown
Launch site
Taiyaun Space Center, China (TSC)
Object type
Payload
Rocket body
Debris
Shape & HBR
Unknown shape, 0.1 m
Radar Cross Section
Small (<0.1 m²)

Expand to show TLE details & history
Last TLE update: 1 day ago

TLE from 1 day ago
0 FENGYUN 1C DEB
1 32214U 99025CVL 26237.31668149  .00002337  00000-0  16090-2 0  9998
2 32214  99.0320 261.4707 0179663  64.5533 359.9349 13.92808535659772
Epoch: 2026-08-25T07:36Z
TLE epoch observation values (Epoch: 2026-08-25T07:36:01.280Z)
Latitude
63.12876°
Longitude
155.69749°
Altitude
798.479 km
Speed
7.527 km/s
True Right ascension
16h 13m 09s
True Declination
62° 59' 26"
Sunlit
Object was in daylight at epoch
Visualization orbit readout
Latitude
Unknown
Longitude
Unknown
Altitude
Unknown
Speed
Unknown
Apparent Right ascension
Unknown
Apparent Declination
Unknown
Sunlit
N/A
Visualization observer readout
Local Sidereal Time
03:32:33
Azimuth
Unknown
Elevation
Unknown
Doppler factor
Unknown
Orbital elements
Apogee altitude
1,047.063 km
Perigee altitude
784.965 km
Semi-major axis
7,294.151 km
Eccentricity
0.01797
Inclination
99.032°
RAAN
261.4707°
Arg. of periapsis
64.5533°
True anomaly
359.93251°
Mean anomaly
359.9349°
Eccentric anomaly
359.93371°
Mean motion
3.48402 °/min
Orbital period
103.33 mins
BSTAR
0.001609
Loading maneuver chart data...
Computing Atmospheric mass density...

Documentation

Showing up to 5 results
|